Location: Spor
(46.2167°N, 11.0500°E)
Time: 12:46:17
(UTC+00:00)

Cosmos 1408 - Pass Details

Date: 07 June 2020
Orbit: 469 x 495 km, 82.6° (Epoch: 14 July)

Event Time Altitude Azimuth Distance (km) Brightness Sun altitude
Exits shadow 01:49:36 16° 182° (S) 1,362 4.3 -12.6°
Maximum altitude 01:52:30 78° 97° (E) 508 2.7 -12.3°
Drops below altitude 10° 01:56:11 10° 11° (NNE) 1,687 6.4 -11.9°
Sets 01:58:18 0° 11° (N) 2,568 7.5 -11.7°
